KD2PWM Weather Reports


time (UTC)temp
C
wind
direction
speed
KPH
gust
KPH
rain 1hr
cm
rain 24hr
cm
rain mn
cm
humidity
%
barometer
mb
20260506201539 16 175 3.2 9.7 0.03 0.97 0.81 95 1005.1
20260506200048 16 159 4.8 14.5 0.03 0.97 0.81 95 1005.2
20260506194541 16 155 3.2 9.7 0.03 0.94 0.79 95 1005.3
20260506193039 16 223 1.6 11.3 0.03 0.94 0.79 94 1005.4
20260506191539 16 173 3.2 9.7 0.03 0.94 0.79 94 1005.5
20260506190046 16 178 3.2 14.5 0.08 0.94 0.79 94 1005.4
20260506184553 16 163 6.4 12.9 0.05 0.91 0.76 94 1005.4
20260506183039 16 152 4.8 16.1 0.08 0.91 0.76 94 1005.5
20260506181538 16 173 4.8 12.9 0.10 0.91 0.76 94 1005.7
20260506180039 16 175 3.2 14.5 0.08 0.86 0.71 95 1005.8
20260506174537 16 188 6.4 14.5 0.10 0.86 0.71 95 1005.7
20260506173047 15 180 4.8 16.1 0.13 0.84 0.69 95 1005.7
20260506171544 15 155 3.2 9.7 0.15 0.81 0.66 95 1005.7
20260506170041 15 49 3.2 17.7 0.20 0.79 0.64 95 1006.0
20260506164545 15 163 3.2 14.5 0.25 0.76 0.61 96 1006.2
20260506163103 15 154 4.8 11.3 0.28 0.71 0.56 96 1006.3
20260506161538 15 144 1.6 11.3 0.30 0.66 0.51 96 1006.5
20260506160038 14 225 0.0 4.8 0.28 0.58 0.43 96 1006.9
20260506154548 14 0 0.0 0.0 0.23 0.51 0.36 96 1007.2
20260506153040 13 0 0.0 0.0 0.23 0.43 0.28 95 1007.1
20260506151547 13 0 0.0 0.0 0.20 0.36 0.20 96 1007.2
20260506150048 13 0 0.0 0.0 0.15 0.30 0.15 95 1007.5
20260506144546 13 0 0.0 0.0 0.13 0.28 0.13 95 1007.8
20260506143045 13 0 0.0 0.0 0.05 0.20 0.05 95 1008.0
20260506141540 13 0 0.0 0.0 0.00 0.15 0.00 95 1008.0
20260506140040 13 0 0.0 0.0 0.00 0.15 0.00 95 1008.1
20260506134538 13 0 0.0 0.0 0.00 0.15 0.00 96 1007.8
20260506133038 12 0 0.0 4.8 0.00 0.15 0.00 95 1007.7
20260506131539 12 0 0.0 3.2 0.00 0.15 0.00 95 1007.5
20260506130040 12 0 0.0 3.2 0.00 0.15 0.00 96 1008.0
20260506124545 12 0 0.0 3.2 0.00 0.15 0.00 96 1008.0
20260506123041 12 292 0.0 1.6 0.00 0.15 0.00 96 1008.4
20260506121546 12 0 0.0 0.0 0.00 0.15 0.00 96 1008.8
20260506120040 12 0 0.0 0.0 0.00 0.15 0.00 96 1008.6
20260506114541 12 0 0.0 0.0 0.00 0.15 0.00 96 1008.6
20260506113039 12 0 0.0 0.0 0.00 0.15 0.00 96 1008.0
20260506111538 12 0 0.0 0.0 0.00 0.15 0.00 96 1008.1
20260506110041 11 0 0.0 0.0 0.00 0.15 0.00 96 1007.8
20260506104537 11 0 0.0 0.0 0.00 0.15 0.00 95 1007.9
20260506103038 11 0 0.0 0.0 0.00 0.15 0.00 95 1007.8
20260506101542 11 0 0.0 0.0 0.00 0.15 0.00 95 1007.7
20260506100039 11 0 0.0 0.0 0.00 0.15 0.00 95 1007.5
20260506094539 11 0 0.0 0.0 0.00 0.15 0.00 95 1007.8
20260506093039 11 0 0.0 0.0 0.00 0.15 0.00 94 1007.5
20260506091537 11 0 0.0 0.0 0.00 0.15 0.00 95 1007.7
20260506090058 11 0 0.0 0.0 0.00 0.15 0.00 94 1007.6
20260506084546 11 0 0.0 0.0 0.00 0.15 0.00 94 1007.9
20260506083042 12 0 0.0 0.0 0.00 0.15 0.00 94 1008.1
20260506081542 12 0 0.0 0.0 0.00 0.15 0.00 94 1008.2
20260506073038 12 0 0.0 0.0 0.00 0.15 0.00 94 1008.8
20260506071542 12 0 0.0 1.6 0.00 0.15 0.00 94 1008.8
20260506061537 13 0 0.0 1.6 0.00 0.15 0.00 93 1009.3
20260506044543 15 0 0.0 0.0 0.00 0.15 0.00 93 1009.5
20260506043037 15 0 0.0 0.0 0.00 0.15 0.00 93 1009.5
20260506041556 15 0 0.0 0.0 0.00 0.15 0.00 92 1009.4
20260506040041 15 0 0.0 0.0 0.03 0.15 0.00 92 1009.3
20260506034549 15 0 0.0 1.6 0.08 0.15 0.15 92 1009.3
20260506033040 16 0 1.6 4.8 0.08 0.15 0.15 92 1008.7
20260506031544 16 0 0.0 3.2 0.10 0.15 0.15 91 1008.5
20260506030043 16 0 0.0 1.6 0.10 0.13 0.13 90 1009.0
20260506024540 16 0 0.0 4.8 0.05 0.08 0.08 88 1008.3
20260506023040 16 0 0.0 3.2 0.05 0.08 0.08 85 1008.2
20260506021538 17 0 0.0 3.2 0.03 0.05 0.05 83 1008.5
20260506020042 17 61 0.0 3.2 0.00 0.03 0.03 82 1008.0
20260506014545 17 0 0.0 4.8 0.00 0.03 0.03 83 1008.3
20260506013053 16 0 0.0 1.6 0.00 0.03 0.03 84 1007.8
20260506011543 17 59 0.0 3.2 0.00 0.03 0.03 84 1007.8
20260506010040 17 0 0.0 1.6 0.00 0.03 0.03 84 1007.6
20260506004537 17 59 0.0 3.2 0.00 0.03 0.03 84 1007.5
20260506003038 17 0 0.0 1.6 0.00 0.03 0.03 81 1007.2
20260506001537 17 0 0.0 0.0 0.00 0.03 0.03 80 1007.0
20260506000044 17 59 0.0 4.8 0.00 0.03 0.03 79 1006.7
20260505234542 17 59 0.0 4.8 0.00 0.03 0.03 80 1006.8
20260505233039 17 0 0.0 3.2 0.00 0.03 0.03 80 1006.6
20260505231539 17 57 0.0 4.8 0.00 0.03 0.03 81 1006.6
20260505230100 18 0 0.0 3.2 0.00 0.03 0.03 81 1006.7
20260505224538 18 0 0.0 3.2 0.03 0.03 0.03 78 1006.7
20260505223042 18 47 0.0 6.4 0.03 0.03 0.03 76 1006.8
20260505221545 18 0 0.0 3.2 0.03 0.03 0.03 73 1007.0
20260505220051 20 281 1.6 6.4 0.03 0.03 0.03 69 1006.8
20260505214538 21 186 4.8 16.1 0.00 0.00 0.00 61 1006.4
20260505213037 25 182 1.6 17.7 0.00 0.00 0.00 49 1005.2
20260505211546 26 191 3.2 17.7 0.00 0.00 0.00 38 1004.4
20260505210038 26 177 3.2 25.7 0.00 0.00 0.00 38 1003.9
20260505204538 26 178 6.4 24.1 0.00 0.00 0.00 39 1003.7
20260505203038 26 178 8.0 17.7 0.00 0.00 0.00 39 1003.5